Project,Study,Ord_Occ,Event_Num,Date_Time_UTC,Date_Time_PST,Lat_Dec,Lon_Dec,Sta_ID,Line,Sta,Depth,Pressure,Temp0,Temp1,Salt0,CorrSalt0,Salt1,CorrSalt1,O2ml/L,AveCorrO2ml/L,StaCorrO2ml/L,FluorV,AveEstChl,StaEstChl,ISUSV,AveEstNO3,StaEstNO3,SigThetaTS0,SigThetaTS1,BAT,XMiss,SPAR,PAR,BTL_Depth,BTL_Temp,BTL_Salt,BTL_O2ml/L,BTL_Chl,BTL_Pha,BTL_NO3
CalCOFI,0707NH,028,,04-Jul-2007 15:44:55,04-Jul-2007 07:44:55,33.25321,-118.25050,090.0 035.0,090.0,035.0,298.000,300.341,7.7057,7.7041,34.2130,34.2144,34.2193,34.2170,1.09249,1.09,1.11,0.0243,,,1.9734,37.22,35.242,26.7032,26.7084,0.3763,91.0221,5.7552e+02,9.9990e+03,298,7.71 ,34.215, 1.04,,,34.2
CalCOFI,0707NH,028,,04-Jul-2007 15:45:13,04-Jul-2007 07:45:13,33.25325,-118.25048,090.0 035.0,090.0,035.0,297.000,299.332,7.7060,7.7060,34.2126,34.2140,34.2189,34.2166,1.09051,1.09,1.11,0.0251,,,1.9316,36.33,34.292,26.7029,26.7079,0.3763,91.0227,5.8135e+02,9.9990e+03,,,,,,,
CalCOFI,0707NH,028,,04-Jul-2007 15:45:18,04-Jul-2007 07:45:18,33.25326,-118.25048,090.0 035.0,090.0,035.0,296.000,298.323,7.7046,7.7041,34.2115,34.2129,34.2182,34.2159,1.10500,1.10,1.12,0.0244,,,1.9231,36.15,34.099,26.7022,26.7075,0.3785,90.9720,5.8486e+02,9.9990e+03,,,,,,,
CalCOFI,0707NH,028,,04-Jul-2007 15:45:20,04-Jul-2007 07:45:20,33.25326,-118.25048,090.0 035.0,090.0,035.0,295.000,297.315,7.7085,7.7081,34.2102,34.2116,34.2163,34.2140,1.10715,1.10,1.12,0.0241,,,1.9265,36.22,34.176,26.7006,26.7055,0.3764,91.0205,5.8442e+02,9.9990e+03,,,,,,,
CalCOFI,0707NH,028,,04-Jul-2007 15:45:21,04-Jul-2007 07:45:21,33.25326,-118.25048,090.0 035.0,090.0,035.0,294.000,296.306,7.7140,7.7137,34.2096,34.2110,34.2155,34.2132,1.11050,1.11,1.13,0.0244,,,1.9473,36.67,34.649,26.6993,26.7040,0.3769,91.0083,5.8450e+02,9.9990e+03,,,,,,,
CalCOFI,0707NH,028,,04-Jul-2007 15:45:22,04-Jul-2007 07:45:22,33.25326,-118.25048,090.0 035.0,090.0,035.0,293.000,295.298,7.7137,7.7135,34.2093,34.2107,34.2152,34.2129,1.11702,1.11,1.13,0.0244,,,1.9496,36.72,34.701,26.6991,26.7038,0.3787,90.9662,5.8438e+02,9.9990e+03,,,,,,,
CalCOFI,0707NH,028,,04-Jul-2007 15:45:23,04-Jul-2007 07:45:23,33.25328,-118.25048,090.0 035.0,090.0,035.0,292.000,294.289,7.7324,7.7284,34.2089,34.2103,34.2155,34.2132,1.13503,1.13,1.15,0.0243,,,1.9485,36.69,34.676,26.6961,26.7018,0.3769,91.0089,5.8447e+02,9.9990e+03,,,,,,,
CalCOFI,0707NH,028,,04-Jul-2007 15:45:25,04-Jul-2007 07:45:25,33.25328,-118.25048,090.0 035.0,090.0,035.0,291.000,293.281,7.7797,7.7758,34.2007,34.2021,34.2078,34.2055,1.15107,1.15,1.17,0.0243,,,1.9848,37.47,35.501,26.6828,26.6889,0.3770,91.0066,5.8426e+02,9.9990e+03,,,,,,,
CalCOFI,0707NH,028,,04-Jul-2007 15:45:26,04-Jul-2007 07:45:26,33.25328,-118.25048,090.0 035.0,090.0,035.0,290.000,292.272,7.7868,7.7859,34.1990,34.2004,34.2047,34.2024,1.16255,1.16,1.18,0.0250,,,1.9028,35.72,33.637,26.6803,26.6850,0.3770,91.0062,5.8446e+02,9.9990e+03,,,,,,,
CalCOFI,0707NH,028,,04-Jul-2007 15:45:28,04-Jul-2007 07:45:28,33.25329,-118.25048,090.0 035.0,090.0,035.0,289.000,291.263,7.7904,7.7890,34.1994,34.2008,34.2050,34.2027,1.17048,1.17,1.19,0.0246,,,1.9356,36.42,34.383,26.6801,26.6848,0.5297,87.8623,5.8464e+02,9.9990e+03,,,,,,,
CalCOFI,0707NH,028,,04-Jul-2007 15:45:31,04-Jul-2007 07:45:31,33.25330,-118.25048,090.0 035.0,090.0,035.0,288.000,290.255,7.7883,7.7867,34.1995,34.2009,34.2055,34.2032,1.17645,1.18,1.20,0.0242,,,1.9144,35.97,33.901,26.6805,26.6855,0.3705,91.1372,5.8516e+02,9.9990e+03,,,,,,,
CalCOFI,0707NH,028,,04-Jul-2007 15:45:32,04-Jul-2007 07:45:32,33.25330,-118.25048,090.0 035.0,090.0,035.0,287.000,289.246,7.7960,7.7954,34.1988,34.2002,34.2044,34.2021,1.17920,1.18,1.20,0.0246,,,1.8989,35.64,33.549,26.6789,26.6834,0.3773,90.9972,5.8827e+02,9.9990e+03,,,,,,,
CalCOFI,0707NH,028,,04-Jul-2007 15:45:33,04-Jul-2007 07:45:33,33.25330,-118.25048,090.0 035.0,090.0,035.0,286.000,288.238,7.7959,7.7952,34.1987,34.2001,34.2044,34.2021,1.18140,1.18,1.20,0.0246,,,1.8722,35.07,32.942,26.6788,26.6833,0.3780,90.9816,5.8810e+02,9.9990e+03,,,,,,,
CalCOFI,0707NH,028,,04-Jul-2007 15:45:34,04-Jul-2007 07:45:34,33.25330,-118.25048,090.0 035.0,090.0,035.0,285.000,287.229,7.7961,7.7959,34.1989,34.2003,34.2046,34.2023,1.18321,1.18,1.20,0.0245,,,1.8723,35.07,32.944,26.6789,26.6834,0.3774,90.9952,5.8810e+02,9.9990e+03,,,,,,,
CalCOFI,0707NH,028,,04-Jul-2007 15:45:36,04-Jul-2007 07:45:36,33.25330,-118.25048,090.0 035.0,090.0,035.0,284.000,286.221,7.8090,7.8076,34.1990,34.2004,34.2049,34.2026,1.18588,1.19,1.21,0.0240,,,1.9096,35.86,33.792,26.6770,26.6819,0.3780,90.9814,5.8847e+02,9.9990e+03,,,,,,,
CalCOFI,0707NH,028,,04-Jul-2007 15:45:37,04-Jul-2007 07:45:37,33.25330,-118.25048,090.0 035.0,090.0,035.0,283.000,285.212,7.8146,7.8154,34.1989,34.2003,34.2046,34.2023,1.18760,1.19,1.21,0.0248,,,1.9777,37.32,35.340,26.6762,26.6805,0.3800,90.9372,5.8816e+02,9.9990e+03,,,,,,,
CalCOFI,0707NH,028,,04-Jul-2007 15:45:38,04-Jul-2007 07:45:38,33.25330,-118.25048,090.0 035.0,090.0,035.0,282.000,284.204,7.8218,7.8211,34.1993,34.2007,34.2050,34.2027,1.18994,1.19,1.21,0.0244,,,1.9026,35.71,33.633,26.6754,26.6800,0.3780,90.9836,5.8833e+02,9.9990e+03,,,,,,,
CalCOFI,0707NH,028,,04-Jul-2007 15:45:40,04-Jul-2007 07:45:40,33.25331,-118.25048,090.0 035.0,090.0,035.0,281.000,283.195,7.8226,7.8220,34.1993,34.2007,34.2049,34.2026,1.19122,1.19,1.21,0.0250,,,1.9506,36.74,34.724,26.6752,26.6798,0.3775,90.9927,5.8828e+02,9.9990e+03,,,,,,,
CalCOFI,0707NH,028,,04-Jul-2007 15:45:41,04-Jul-2007 07:45:41,33.25332,-9.990e-29,090.0 035.0,090.0,035.0,280.000,282.187,7.8278,7.8263,34.1994,34.2008,34.2050,34.2027,1.19197,1.19,1.21,0.0244,,,1.8839,35.32,33.208,26.6746,26.6792,0.3793,90.9532,5.8846e+02,9.9990e+03,,,,,,,
CalCOFI,0707NH,028,,04-Jul-2007 15:45:43,04-Jul-2007 07:45:43,33.25332,-118.25046,090.0 035.0,090.0,035.0,279.000,281.178,7.8294,7.8281,34.1992,34.2006,34.2050,34.2027,1.19318,1.19,1.21,0.0242,,,1.9417,36.55,34.522,26.6742,26.6789,0.3823,90.8859,5.8839e+02,9.9990e+03,,,,,,,
CalCOFI,0707NH,028,,04-Jul-2007 15:45:45,04-Jul-2007 07:45:45,33.25333,-118.25046,090.0 035.0,090.0,035.0,278.000,280.170,7.8355,7.8334,34.1994,34.2008,34.2050,34.2027,1.19649,1.20,1.22,0.0242,,,1.9387,36.48,34.453,26.6734,26.6781,0.3777,90.9882,5.8830e+02,9.9990e+03,,,,,,,
CalCOFI,0707NH,028,,04-Jul-2007 15:45:47,04-Jul-2007 07:45:47,33.25334,-118.25046,090.0 035.0,090.0,035.0,277.000,279.161,7.8533,7.8454,34.1981,34.1995,34.2044,34.2021,1.20160,1.20,1.22,0.0243,,,1.9267,36.23,34.181,26.6697,26.6759,0.3789,90.9614,5.8829e+02,9.9990e+03,,,,,,,
CalCOFI,0707NH,028,,04-Jul-2007 15:45:48,04-Jul-2007 07:45:48,33.25334,-118.25046,090.0 035.0,090.0,035.0,276.000,278.153,7.8653,7.8660,34.1975,34.1989,34.2030,34.2007,1.20477,1.21,1.23,0.0240,,,1.8894,35.43,33.333,26.6676,26.6718,0.3804,90.9290,5.8840e+02,9.9990e+03,,,,,,,
CalCOFI,0707NH,028,,04-Jul-2007 15:45:49,04-Jul-2007 07:45:49,33.25334,-118.25046,090.0 035.0,090.0,035.0,275.000,277.144,7.9014,7.8987,34.1977,34.1991,34.2041,34.2018,1.20609,1.21,1.23,0.0244,,,1.9302,36.30,34.260,26.6624,26.6678,0.3837,90.8529,5.9106e+02,9.9990e+03,,,,,,,
CalCOFI,0707NH,028,,04-Jul-2007 15:45:50,04-Jul-2007 07:45:50,33.25334,-118.25046,090.0 035.0,090.0,035.0,274.000,276.136,7.9245,7.9232,34.1986,34.2000,34.2041,34.2018,1.20551,1.21,1.23,0.0241,,,1.9449,36.62,34.594,26.6597,26.6642,0.3826,90.8784,5.9191e+02,9.9990e+03,,,,,,,
CalCOFI,0707NH,028,,04-Jul-2007 15:45:53,04-Jul-2007 07:45:53,33.25334,-118.25046,090.0 035.0,090.0,035.0,273.000,275.127,7.9301,7.9364,34.1998,34.2012,34.2048,34.2025,1.20557,1.21,1.23,0.0243,,,1.8903,35.45,33.353,26.6598,26.6628,0.3826,90.8795,5.9213e+02,9.9990e+03,,,,,,,
CalCOFI,0707NH,028,,04-Jul-2007 15:45:57,04-Jul-2007 07:45:57,33.25336,-118.25046,090.0 035.0,090.0,035.0,272.000,274.119,7.8915,7.8883,34.1983,34.1997,34.2053,34.2030,1.20742,1.21,1.23,0.0245,,,1.8828,35.29,33.183,26.6642,26.6702,0.3808,90.9197,5.9253e+02,9.9990e+03,,,,,,,
CalCOFI,0707NH,028,,04-Jul-2007 15:45:59,04-Jul-2007 07:45:59,33.25336,-118.25046,090.0 035.0,090.0,035.0,271.000,273.110,7.9829,7.9977,34.2107,34.2121,34.2181,34.2158,1.19545,1.20,1.22,0.0245,,,1.8853,35.35,33.240,26.6605,26.6641,0.3803,90.9297,5.9212e+02,9.9990e+03,,,,,,,
CalCOFI,0707NH,028,,04-Jul-2007 15:46:04,04-Jul-2007 07:46:04,33.25338,-118.25046,090.0 035.0,090.0,035.0,270.000,272.102,7.9776,8.0136,34.2072,34.2086,34.2153,34.2130,1.19511,1.20,1.22,0.0247,,,1.9097,35.87,33.794,26.6586,26.6595,0.3797,90.9440,5.9237e+02,9.9990e+03,,,,,,,
CalCOFI,0707NH,028,,04-Jul-2007 15:46:07,04-Jul-2007 07:46:07,-9.990e-29,-118.25046,090.0 035.0,090.0,035.0,269.000,271.094,8.0953,8.0981,34.2245,34.2259,34.2304,34.2281,1.18134,1.18,1.20,0.0242,,,1.8255,34.07,31.880,26.6546,26.6588,0.3781,90.9794,5.9203e+02,9.9990e+03,269,8.00 ,34.207, 1.17,,,33.2
CalCOFI,0707NH,028,,04-Jul-2007 15:47:20,04-Jul-2007 07:47:20,33.25351,-118.25040,090.0 035.0,090.0,035.0,268.000,270.085,8.0219,8.0256,34.2113,34.2127,34.2161,34.2138,1.18090,1.18,1.20,0.0251,,,1.9169,36.02,33.958,26.6552,26.6584,0.3789,90.9620,5.9371e+02,9.9990e+03,,,,,,,
CalCOFI,0707NH,028,,04-Jul-2007 15:48:01,04-Jul-2007 07:48:01,33.25364,-118.25036,090.0 035.0,090.0,035.0,267.000,269.077,8.0089,8.0101,34.2077,34.2091,34.2122,34.2099,1.19675,1.20,1.22,0.0249,,,1.8607,34.82,32.680,26.6543,26.6576,0.3795,90.9482,5.9666e+02,9.9990e+03,,,,,,,
CalCOFI,0707NH,028,,04-Jul-2007 15:48:06,04-Jul-2007 07:48:06,33.25366,-118.25034,090.0 035.0,090.0,035.0,266.000,268.068,8.0121,8.0068,34.2080,34.2094,34.2116,34.2093,1.19626,1.20,1.22,0.0244,,,1.8972,35.60,33.510,26.6540,26.6577,0.3812,90.9101,5.9997e+02,9.9990e+03,,,,,,,
CalCOFI,0707NH,028,,04-Jul-2007 15:48:09,04-Jul-2007 07:48:09,33.25366,-118.25034,090.0 035.0,090.0,035.0,265.000,267.060,8.0097,8.0101,34.2076,34.2090,34.2119,34.2096,1.19550,1.20,1.22,0.0244,,,1.8776,35.18,33.065,26.6540,26.6574,0.3787,90.9664,6.0013e+02,9.9990e+03,,,,,,,
CalCOFI,0707NH,028,,04-Jul-2007 15:48:11,04-Jul-2007 07:48:11,33.25367,-118.25034,090.0 035.0,090.0,035.0,264.000,266.052,8.0158,8.0149,34.2085,34.2099,34.2132,34.2109,1.19535,1.20,1.22,0.0244,,,1.8108,33.76,31.546,26.6538,26.6577,0.3782,90.9772,6.0016e+02,9.9990e+03,,,,,,,
CalCOFI,0707NH,028,,04-Jul-2007 15:48:13,04-Jul-2007 07:48:13,33.25368,-118.25034,090.0 035.0,090.0,035.0,263.000,265.043,8.0379,8.0362,34.2116,34.2130,34.2154,34.2131,1.19390,1.19,1.21,0.0245,,,1.8373,34.32,32.148,26.6530,26.6562,0.3778,90.9868,6.0013e+02,9.9990e+03,,,,,,,
CalCOFI,0707NH,028,,04-Jul-2007 15:48:14,04-Jul-2007 07:48:14,33.25369,-118.25034,090.0 035.0,090.0,035.0,262.000,264.035,8.0439,8.0429,34.2126,34.2140,34.2169,34.2146,1.19203,1.19,1.21,0.0242,,,1.9033,35.73,33.649,26.6528,26.6563,0.3780,90.9822,6.0000e+02,9.9990e+03,,,,,,,
CalCOFI,0707NH,028,,04-Jul-2007 15:48:16,04-Jul-2007 07:48:16,33.25370,-118.25034,090.0 035.0,090.0,035.0,261.000,263.026,8.0546,8.0477,34.2143,34.2157,34.2178,34.2155,1.19198,1.19,1.21,0.0243,,,1.8492,34.58,32.419,26.6526,26.6563,0.3776,90.9914,6.0007e+02,9.9990e+03,,,,,,,
CalCOFI,0707NH,028,,04-Jul-2007 15:48:18,04-Jul-2007 07:48:18,33.25368,-118.25034,090.0 035.0,090.0,035.0,260.000,262.018,8.0705,8.0664,34.2162,34.2176,34.2207,34.2184,1.20041,1.20,1.22,0.0240,,,1.9133,35.94,33.876,26.6517,26.6558,0.3775,90.9937,5.9972e+02,9.9990e+03,,,,,,,
CalCOFI,0707NH,028,,04-Jul-2007 15:48:18,04-Jul-2007 07:48:18,33.25368,-118.25034,090.0 035.0,090.0,035.0,259.000,261.009,8.1069,8.1084,34.2209,34.2223,34.2252,34.2229,1.21153,1.21,1.23,0.0241,,,1.8930,35.51,33.415,26.6499,26.6531,0.3765,91.0164,5.9970e+02,9.9990e+03,,,,,,,
CalCOFI,0707NH,028,,04-Jul-2007 15:48:19,04-Jul-2007 07:48:19,33.25368,-118.25034,090.0 035.0,090.0,035.0,258.000,260.001,8.1341,8.1348,34.2173,34.2187,34.2209,34.2186,1.22069,1.22,1.24,0.0246,,,1.8649,34.91,32.776,26.6431,26.6458,0.3768,91.0111,6.0040e+02,9.9990e+03,,,,,,,
CalCOFI,0707NH,028,,04-Jul-2007 15:48:20,04-Jul-2007 07:48:20,33.25369,-118.25034,090.0 035.0,090.0,035.0,257.000,258.993,8.1430,8.1428,34.2106,34.2120,34.2143,34.2120,1.22725,1.23,1.25,0.0248,,,1.8819,35.27,33.162,26.6365,26.6394,0.3769,91.0084,5.9984e+02,9.9990e+03,,,,,,,
CalCOFI,0707NH,028,,04-Jul-2007 15:48:22,04-Jul-2007 07:48:22,33.25371,-118.25034,090.0 035.0,090.0,035.0,256.000,257.984,8.1399,8.1423,34.2101,34.2115,34.2133,34.2110,1.22694,1.23,1.25,0.0246,,,1.8758,35.14,33.024,26.6365,26.6387,0.3768,91.0093,6.0107e+02,9.9990e+03,,,,,,,
CalCOFI,0707NH,028,,04-Jul-2007 15:48:24,04-Jul-2007 07:48:24,33.25372,-118.25034,090.0 035.0,090.0,035.0,255.000,256.976,8.1252,8.1324,34.2138,34.2152,34.2163,34.2140,1.24479,1.25,1.27,0.0244,,,1.8331,34.23,32.053,26.6416,26.6424,0.3788,90.9643,6.0442e+02,9.9990e+03,,,,,,,
CalCOFI,0707NH,028,,04-Jul-2007 15:48:25,04-Jul-2007 07:48:25,33.25370,-118.25034,090.0 035.0,090.0,035.0,254.000,255.967,8.1442,8.1440,34.2067,34.2081,34.2107,34.2084,1.27146,1.28,1.30,0.0240,,,1.8545,34.69,32.539,26.6332,26.6363,0.3769,91.0070,6.0404e+02,9.9990e+03,,,,,,,
CalCOFI,0707NH,028,,04-Jul-2007 15:48:27,04-Jul-2007 07:48:27,33.25370,-118.25034,090.0 035.0,090.0,035.0,253.000,254.959,8.1547,8.1555,34.2008,34.2022,34.2042,34.2019,1.29151,1.30,1.32,0.0242,,,1.8700,35.02,32.892,26.6269,26.6295,0.3755,91.0399,6.0400e+02,9.9990e+03,,,,,,,
CalCOFI,0707NH,028,,04-Jul-2007 15:48:27,04-Jul-2007 07:48:27,33.25372,-118.25034,090.0 035.0,090.0,035.0,252.000,253.951,8.1581,8.1578,34.1972,34.1986,34.2008,34.1985,1.30745,1.31,1.33,0.0240,,,1.8730,35.08,32.960,26.6236,26.6265,0.3750,91.0520,6.0379e+02,9.9990e+03,,,,,,,
CalCOFI,0707NH,028,,04-Jul-2007 15:48:29,04-Jul-2007 07:48:29,33.25372,-118.25034,090.0 035.0,090.0,035.0,251.000,252.942,8.1955,8.1917,34.1998,34.2012,34.2047,34.2024,1.31940,1.33,1.35,0.0260,,,1.8249,34.06,31.867,26.6200,26.6244,0.3750,91.0514,6.0425e+02,9.9990e+03,,,,,,,
CalCOFI,0707NH,028,,04-Jul-2007 15:48:30,04-Jul-2007 07:48:30,33.25372,-118.25033,090.0 035.0,090.0,035.0,250.000,251.934,8.2097,8.2090,34.2006,34.2020,34.2043,34.2020,1.32923,1.34,1.36,0.0237,,,1.8114,33.77,31.560,26.6185,26.6215,0.3744,91.0643,6.0383e+02,9.9990e+03,,,,,,,
CalCOFI,0707NH,028,,04-Jul-2007 15:48:31,04-Jul-2007 07:48:31,33.25372,-118.25032,090.0 035.0,090.0,035.0,249.000,250.926,8.2089,8.2088,34.1984,34.1998,34.2023,34.2000,1.33508,1.34,1.36,0.0240,,,1.8230,34.02,31.823,26.6168,26.6200,0.3745,91.0625,6.0388e+02,9.9990e+03,,,,,,,
CalCOFI,0707NH,028,,04-Jul-2007 15:48:32,04-Jul-2007 07:48:32,33.25372,-118.25032,090.0 035.0,090.0,035.0,248.000,249.917,8.2258,8.2245,34.1966,34.1980,34.2010,34.1987,1.33810,1.35,1.37,0.0240,,,1.7815,33.13,30.880,26.6129,26.6165,0.3755,91.0404,6.0376e+02,9.9990e+03,,,,,,,
CalCOFI,0707NH,028,,04-Jul-2007 15:48:34,04-Jul-2007 07:48:34,33.25372,-118.25032,090.0 035.0,090.0,035.0,247.000,248.909,8.2461,8.2429,34.1977,34.1991,34.2016,34.1993,1.33889,1.35,1.37,0.0248,,,1.8136,33.82,31.610,26.6107,26.6143,0.3761,91.0261,6.0393e+02,9.9990e+03,,,,,,,
CalCOFI,0707NH,028,,04-Jul-2007 15:48:35,04-Jul-2007 07:48:35,33.25372,-118.25034,090.0 035.0,090.0,035.0,246.000,247.901,8.2525,8.2526,34.1984,34.1998,34.2022,34.1999,1.33682,1.34,1.36,0.0242,,,1.8027,33.58,31.362,26.6103,26.6132,0.3771,91.0027,6.0425e+02,9.9990e+03,,,,,,,
CalCOFI,0707NH,028,,04-Jul-2007 15:48:36,04-Jul-2007 07:48:36,33.25372,-118.25034,090.0 035.0,090.0,035.0,245.000,246.892,8.2533,8.2535,34.1985,34.1999,34.2021,34.1998,1.33488,1.34,1.36,0.0240,,,1.8266,34.09,31.905,26.6102,26.6130,0.3785,90.9718,6.0431e+02,9.9990e+03,,,,,,,
CalCOFI,0707NH,028,,04-Jul-2007 15:48:37,04-Jul-2007 07:48:37,33.25374,-118.25033,090.0 035.0,090.0,035.0,244.000,245.884,8.2665,8.2671,34.1989,34.2003,34.2028,34.2005,1.33726,1.34,1.36,0.0240,,,1.8261,34.08,31.894,26.6085,26.6115,0.3790,90.9591,6.0409e+02,9.9990e+03,,,,,,,
CalCOFI,0707NH,028,,04-Jul-2007 15:48:38,04-Jul-2007 07:48:38,33.25374,-118.25032,090.0 035.0,090.0,035.0,243.000,244.876,8.2712,8.2702,34.1970,34.1984,34.2012,34.1989,1.34612,1.35,1.37,0.0325,,,1.8181,33.91,31.712,26.6063,26.6097,0.3789,90.9624,6.0396e+02,9.9990e+03,,,,,,,
CalCOFI,0707NH,028,,04-Jul-2007 15:48:40,04-Jul-2007 07:48:40,-9.990e-29,-118.25032,090.0 035.0,090.0,035.0,242.000,243.867,8.2716,8.2699,34.1952,34.1966,34.1994,34.1971,1.35865,1.37,1.39,0.0245,,,1.8313,34.19,32.012,26.6048,26.6084,0.3787,90.9670,6.0403e+02,9.9990e+03,,,,,,,
CalCOFI,0707NH,028,,04-Jul-2007 15:48:41,04-Jul-2007 07:48:41,-9.990e-29,-118.25032,090.0 035.0,090.0,035.0,241.000,242.859,8.2716,8.2708,34.1939,34.1953,34.1977,34.1954,1.36998,1.38,1.40,0.0248,,,1.8271,34.10,31.917,26.6038,26.6069,0.3772,91.0017,6.0413e+02,9.9990e+03,,,,,,,
CalCOFI,0707NH,028,,04-Jul-2007 15:48:43,04-Jul-2007 07:48:43,33.25376,-118.25032,090.0 035.0,090.0,035.0,240.000,241.851,8.2711,8.2713,34.1932,34.1946,34.1972,34.1949,1.38071,1.39,1.41,0.0243,,,1.8150,33.85,31.642,26.6033,26.6064,0.3765,91.0168,6.0419e+02,9.9990e+03,,,,,,,
CalCOFI,0707NH,028,,04-Jul-2007 15:48:45,04-Jul-2007 07:48:45,33.25376,-118.25034,090.0 035.0,090.0,035.0,239.000,240.842,8.2788,8.2774,34.1918,34.1932,34.1957,34.1934,1.39447,1.40,1.42,0.0248,,,1.8677,34.97,32.840,26.6010,26.6042,0.3760,91.0290,6.0414e+02,9.9990e+03,,,,,,,
CalCOFI,0707NH,028,,04-Jul-2007 15:48:46,04-Jul-2007 07:48:46,33.25377,-118.25034,090.0 035.0,090.0,035.0,238.000,239.834,8.2802,8.2793,34.1901,34.1915,34.1942,34.1919,1.40960,1.42,1.44,0.0238,,,1.8231,34.02,31.826,26.5995,26.6028,0.3755,91.0407,6.0426e+02,9.9990e+03,,,,,,,
CalCOFI,0707NH,028,,04-Jul-2007 15:48:50,04-Jul-2007 07:48:50,33.25378,-118.25032,090.0 035.0,090.0,035.0,237.000,238.826,8.2762,8.2764,34.1909,34.1923,34.1941,34.1918,1.41900,1.43,1.45,0.0237,,,1.8101,33.74,31.530,26.6007,26.6032,0.3752,91.0464,6.0758e+02,9.9990e+03,,,,,,,
CalCOFI,0707NH,028,,04-Jul-2007 15:48:53,04-Jul-2007 07:48:53,33.25378,-118.25034,090.0 035.0,090.0,035.0,236.000,237.818,8.2848,8.2846,34.1897,34.1911,34.1939,34.1916,1.45358,1.47,1.49,0.0234,,,1.8286,34.14,31.951,26.5984,26.6017,0.3736,91.0837,6.0794e+02,9.9990e+03,,,,,,,
CalCOFI,0707NH,028,,04-Jul-2007 15:48:54,04-Jul-2007 07:48:54,33.25378,-118.25033,090.0 035.0,090.0,035.0,235.000,236.809,8.2809,8.2816,34.1839,34.1853,34.1879,34.1856,1.48595,1.50,1.52,0.0241,,,1.7836,33.18,30.928,26.5944,26.5974,0.3724,91.1098,6.0804e+02,9.9990e+03,,,,,,,
CalCOFI,0707NH,028,,04-Jul-2007 15:48:56,04-Jul-2007 07:48:56,-9.990e-29,-118.25032,090.0 035.0,090.0,035.0,234.000,235.801,8.2864,8.2849,34.1816,34.1830,34.1857,34.1834,1.50849,1.52,1.54,0.0240,,,1.7799,33.10,30.844,26.5918,26.5952,0.3706,91.1495,6.0816e+02,9.9990e+03,,,,,,,
CalCOFI,0707NH,028,,04-Jul-2007 15:48:59,04-Jul-2007 07:48:59,33.25380,-118.25033,090.0 035.0,090.0,035.0,233.000,234.793,8.2856,8.2857,34.1807,34.1821,34.1846,34.1823,1.52665,1.54,1.56,0.0240,,,1.8262,34.08,31.896,26.5911,26.5942,0.3701,91.1623,6.0793e+02,9.9990e+03,,,,,,,
CalCOFI,0707NH,028,,04-Jul-2007 15:49:02,04-Jul-2007 07:49:02,33.25380,-118.25033,090.0 035.0,090.0,035.0,232.000,233.785,8.2820,8.2815,34.1801,34.1815,34.1836,34.1813,1.54361,1.56,1.58,0.0239,,,1.8188,33.93,31.728,26.5912,26.5941,0.3694,91.1796,6.0795e+02,9.9990e+03,,,,,,,
CalCOFI,0707NH,028,,04-Jul-2007 15:49:06,04-Jul-2007 07:49:06,33.25382,-118.25032,090.0 035.0,090.0,035.0,231.000,232.776,8.2657,8.2650,34.1746,34.1760,34.1781,34.1758,1.56818,1.59,1.61,0.0235,,,1.8106,33.75,31.542,26.5893,26.5922,0.3693,91.1814,6.0804e+02,9.9990e+03,,,,,,,
CalCOFI,0707NH,028,,04-Jul-2007 15:49:09,04-Jul-2007 07:49:09,33.25382,-118.25032,090.0 035.0,090.0,035.0,230.000,231.768,8.2596,8.2601,34.1724,34.1738,34.1763,34.1740,1.58672,1.61,1.62,0.0239,,,1.8168,33.88,31.683,26.5885,26.5916,0.3689,91.1914,6.0793e+02,9.9990e+03,,,,,,,
CalCOFI,0707NH,028,,04-Jul-2007 15:49:11,04-Jul-2007 07:49:11,33.25382,-118.25032,090.0 035.0,090.0,035.0,229.000,230.760,8.2598,8.2592,34.1709,34.1723,34.1748,34.1725,1.59688,1.62,1.63,0.0248,,,1.7838,33.18,30.932,26.5873,26.5905,0.3692,91.1843,6.0885e+02,9.9990e+03,229,8.26 ,34.173, 1.62,,,31.3
CalCOFI,0707NH,028,,04-Jul-2007 15:50:15,04-Jul-2007 07:50:15,33.25403,-118.25030,090.0 035.0,090.0,035.0,228.000,229.752,8.2636,8.2632,34.1706,34.1720,34.1738,34.1715,1.62080,1.64,1.66,0.0232,,,1.8325,34.22,32.039,26.5865,26.5891,0.3692,91.1828,6.2259e+02,9.9990e+03,,,,,,,
CalCOFI,0707NH,028,,04-Jul-2007 15:50:35,04-Jul-2007 07:50:35,33.25404,-118.25028,090.0 035.0,090.0,035.0,227.000,228.743,8.2688,8.2690,34.1697,34.1711,34.1732,34.1709,-9.990e-29,,1.66,0.0241,,,1.8512,34.62,32.464,26.5850,26.5877,0.3693,91.1804,-9.990e-29,9.9990e+03,,,,,,,
CalCOFI,0707NH,028,,04-Jul-2007 15:50:35,04-Jul-2007 07:50:35,33.25404,-118.25028,090.0 035.0,090.0,035.0,226.000,227.735,8.2769,8.2762,34.1701,34.1715,34.1736,34.1713,1.62497,1.65,1.66,0.0234,,,1.7922,33.36,31.123,26.5840,26.5869,0.3694,91.1787,-9.990e-29,9.9990e+03,,,,,,,
CalCOFI,0707NH,028,,04-Jul-2007 15:50:38,04-Jul-2007 07:50:38,33.25406,-118.25028,090.0 035.0,090.0,035.0,225.000,226.727,8.2729,8.2741,34.1700,34.1714,34.1735,34.1712,1.62655,1.65,1.67,0.0240,,,1.7697,32.88,30.612,26.5846,26.5872,0.3694,91.1790,-9.990e-29,9.9990e+03,,,,,,,
CalCOFI,0707NH,028,,04-Jul-2007 15:50:40,04-Jul-2007 07:50:40,33.25406,-118.25028,090.0 035.0,090.0,035.0,224.000,225.719,8.2785,8.2774,34.1699,34.1713,34.1732,34.1709,1.63042,1.65,1.67,0.0235,,,1.7796,33.09,30.837,26.5836,26.5864,0.3696,91.1735,-9.990e-29,9.9990e+03,,,,,,,
CalCOFI,0707NH,028,,04-Jul-2007 15:50:41,04-Jul-2007 07:50:41,33.25406,-118.25028,090.0 035.0,090.0,035.0,223.000,224.710,8.2922,8.2909,34.1695,34.1709,34.1732,34.1709,1.63604,1.66,1.68,0.0236,,,1.7886,33.28,31.041,26.5812,26.5843,0.3698,91.1686,-9.990e-29,9.9990e+03,,,,,,,
CalCOFI,0707NH,028,,04-Jul-2007 15:50:42,04-Jul-2007 07:50:42,33.25406,-118.25028,090.0 035.0,090.0,035.0,222.000,223.702,8.2993,8.2991,34.1691,34.1705,34.1727,34.1704,1.63886,1.66,1.68,0.0245,,,1.7794,33.09,30.832,26.5798,26.5826,0.3695,91.1759,-9.990e-29,9.9990e+03,,,,,,,
CalCOFI,0707NH,028,,04-Jul-2007 15:50:43,04-Jul-2007 07:50:43,33.25406,-118.25028,090.0 035.0,090.0,035.0,221.000,222.694,8.3299,8.3296,34.1685,34.1699,34.1726,34.1703,1.64143,1.66,1.68,0.0237,,,1.7575,32.62,30.335,26.5747,26.5780,0.3700,91.1634,-9.990e-29,9.9990e+03,,,,,,,
CalCOFI,0707NH,028,,04-Jul-2007 15:50:45,04-Jul-2007 07:50:45,-9.990e-29,-118.25027,090.0 035.0,090.0,035.0,220.000,221.686,8.3561,8.3365,34.1687,34.1701,34.1707,34.1684,1.64159,1.66,1.68,0.0239,,,1.7724,32.94,30.673,26.5708,26.5754,0.3702,91.1603,-9.990e-29,9.9990e+03,,,,,,,
CalCOFI,0707NH,028,,04-Jul-2007 15:50:48,04-Jul-2007 07:50:48,33.25408,-118.25028,090.0 035.0,090.0,035.0,219.000,220.677,8.3559,8.3401,34.1726,34.1740,34.1742,34.1719,1.64262,1.67,1.68,0.0239,,,1.8143,33.83,31.626,26.5739,26.5776,0.3698,91.1701,6.2764e+02,9.9990e+03,,,,,,,
CalCOFI,0707NH,028,,04-Jul-2007 15:50:49,04-Jul-2007 07:50:49,33.25408,-118.25028,090.0 035.0,090.0,035.0,218.000,219.669,8.3927,8.3881,34.1716,34.1730,34.1763,34.1740,1.63760,1.66,1.68,0.0240,,,1.8094,33.73,31.514,26.5675,26.5720,0.3712,91.1370,6.2766e+02,9.9990e+03,,,,,,,
CalCOFI,0707NH,028,,04-Jul-2007 15:50:50,04-Jul-2007 07:50:50,33.25408,-118.25028,090.0 035.0,090.0,035.0,217.000,218.661,8.4360,8.4351,34.1738,34.1752,34.1768,34.1745,1.63338,1.66,1.67,0.0236,,,1.8060,33.65,31.437,26.5627,26.5652,0.3713,91.1358,6.2760e+02,9.9990e+03,,,,,,,
CalCOFI,0707NH,028,,04-Jul-2007 15:50:52,04-Jul-2007 07:50:52,33.25408,-118.25027,090.0 035.0,090.0,035.0,216.000,217.653,8.4422,8.4411,34.1748,34.1762,34.1779,34.1756,1.63133,1.65,1.67,0.0244,,,1.7880,33.27,31.028,26.5625,26.5651,0.3714,91.1323,6.3152e+02,9.9990e+03,,,,,,,
CalCOFI,0707NH,028,,04-Jul-2007 15:50:53,04-Jul-2007 07:50:53,-9.990e-29,-118.25026,090.0 035.0,090.0,035.0,215.000,216.645,8.4897,8.4890,34.1767,34.1781,34.1816,34.1793,1.62755,1.65,1.67,0.0234,,,1.7921,33.36,31.121,26.5567,26.5607,0.3712,91.1361,6.3163e+02,9.9990e+03,,,,,,,
CalCOFI,0707NH,028,,04-Jul-2007 15:50:54,04-Jul-2007 07:50:54,-9.990e-29,-118.25026,090.0 035.0,090.0,035.0,214.000,215.637,8.5706,8.5693,34.1801,34.1815,34.1836,34.1813,1.62231,1.64,1.66,0.0234,,,1.8016,33.56,31.337,26.5469,26.5499,0.3722,91.1153,6.3163e+02,9.9990e+03,,,,,,,